Weather reports worldwide

Advertisment
Wick Airport (AWS), United Kingdom (3075): temperature & dewpoint: 17.01.2019 02:00:00 - 23.01.2019 02:00:00 (GMT)Wick Airport (AWS), United Kingdom (3075): temperature -20cm: 17.01.2019 02:00:00 - 23.01.2019 02:00:00 (GMT)Wick Airport (AWS), United Kingdom (3075): wind speed & gusts: 17.01.2019 02:00:00 - 23.01.2019 02:00:00 (GMT)Wick Airport (AWS), United Kingdom (3075): wind direction: 17.01.2019 02:00:00 - 23.01.2019 02:00:00 (GMT)Wick Airport (AWS), United Kingdom (3075): reduced air pressure: 17.01.2019 02:00:00 - 23.01.2019 02:00:00 (GMT)Wick Airport (AWS), United Kingdom (3075): visibility: 17.01.2019 02:00:00 - 23.01.2019 02:00:00 (GMT)Wick Airport (AWS), United Kingdom (3075): precipitation: 17.01.2019 02:00:00 - 23.01.2019 02:00:00 (GMT)
Date & Time tt [°C] td [°C] tt -20cm [°C] ff [km/h] ff [kn] fx [km/h] fx [kn] dd ppp [hPa] vv [km] rr [mm]
23.01.2019 02:00:00 -2,3 -3,1 - 13 7 - - W 996,1 50 -
23.01.2019 01:00:00 -1,0 -1,8 - 9 5 - - W 995,7 50 0,0
23.01.2019 00:00:00 -0,9 -1,8 - 11 6 - - W 995,4 50 0,0
22.01.2019 23:00:00 -0,5 -1,7 - 13 7 - - WSW 994,9 45 0,0
22.01.2019 22:00:00 -1,0 -1,7 - 15 8 - - WSW 994,1 50 0,0
22.01.2019 21:00:00 -0,9 -1,6 - 21 11 - - W 993,5 50 0,0
22.01.2019 20:00:00 -0,5 -1,5 - 21 11 - - WSW 993,1 45 0,0
22.01.2019 19:00:00 0,2 -0,4 - 22 12 - - W 992,4 35 0,0
22.01.2019 18:00:00 -0,4 -1,0 - 16 9 - - W 992,1 40 0,0
22.01.2019 17:00:00 0,6 -0,5 - 22 12 - - W 992,0 45 0,0
22.01.2019 16:00:00 1,6 0,2 - 22 12 - - WNW 992,2 45 0,0
22.01.2019 15:00:00 2,4 0,3 - 22 12 - - W 991,9 45 0,0
22.01.2019 14:00:00 2,5 0,4 - 28 15 - - W 991,9 40 0,0
22.01.2019 13:00:00 2,6 0,4 - 24 13 - - W 992,2 40 0,0
22.01.2019 12:00:00 1,3 0,0 - 18 10 - - W 992,8 24 0,0
22.01.2019 11:00:00 0,7 -0,5 - 24 13 - - W 993,1 30 0,0
22.01.2019 10:00:00 0,3 -0,8 - 21 11 - - W 993,3 30 0,0
22.01.2019 09:00:00 0,3 -0,7 3,5 16 9 - - W 993,3 40 0,0
22.01.2019 08:00:00 0,4 -0,6 - 16 9 - - W 993,4 40 0,0
22.01.2019 07:00:00 0,9 -0,1 - 22 12 - - W 993,8 40 0,0
22.01.2019 06:00:00 1,2 0,5 - 18 10 - - W 993,7 35 0,0
22.01.2019 05:00:00 1,1 0,4 - 11 6 - - W 993,7 45 0,2
22.01.2019 04:00:00 1,6 0,4 - 18 10 - - WSW 994,4 40 0,0
22.01.2019 03:00:00 1,5 0,1 - 15 8 - - SW 994,7 45 0,0
22.01.2019 02:00:00 2,4 0,8 - 11 6 - - SSW 995,1 45 0,0
22.01.2019 01:00:00 2,4 1,0 - 11 6 - - SSW 995,6 50 0,2
22.01.2019 00:00:00 2,2 1,4 - 11 6 - - WSW 995,8 23 0,0
21.01.2019 23:00:00 2,5 1,4 - 16 9 - - SW 996,1 24 0,2
21.01.2019 22:00:00 3,7 2,0 - 24 13 50 27 SSW 996,2 11 0,4
21.01.2019 21:00:00 4,1 1,8 - 29 16 52 28 S 996,6 11 0,4
21.01.2019 20:00:00 4,3 1,6 - 39 21 61 33 SSE 997,4 13 0,2
21.01.2019 19:00:00 4,7 1,2 - 41 22 63 34 SSE 998,1 19 0,0
21.01.2019 18:00:00 5,1 1,0 - 39 21 57 31 SSE 999,2 28 0,0
21.01.2019 17:00:00 5,3 0,6 - 34 18 61 33 S 1000,8 40 0,0
21.01.2019 16:00:00 5,3 0,0 - 37 20 63 34 S 1002,1 40 0,0
21.01.2019 15:00:00 5,2 0,1 - 37 20 63 34 S 1003,9 35 0,0
21.01.2019 14:00:00 5,2 0,3 - 35 19 57 31 S 1005,5 20 0,0
21.01.2019 13:00:00 5,3 0,9 - 29 16 52 28 S 1007,3 27 0,0
21.01.2019 12:00:00 5,1 1,7 - 26 14 - - S 1009,5 23 0,0
21.01.2019 11:00:00 4,9 1,6 - 34 18 48 26 S 1011,0 40 0,0
21.01.2019 10:00:00 4,4 1,5 - 26 14 - - S 1012,2 30 0,0
21.01.2019 09:00:00 4,1 2,0 3,4 26 14 - - S 1013,2 26 0,0
21.01.2019 08:00:00 3,5 1,8 - 22 12 - - S 1014,5 30 0,0
21.01.2019 07:00:00 2,8 0,9 - 15 8 - - S 1015,3 30 0,0
21.01.2019 06:00:00 1,9 -0,4 - 4 2 - - SSW 1016,3 30 0,0
21.01.2019 05:00:00 2,2 0,2 - 13 7 - - S 1017,4 40 0,0
21.01.2019 04:00:00 2,4 0,0 - 13 7 - - S 1018,0 40 0,0
21.01.2019 03:00:00 1,4 -0,1 - 16 9 - - SW 1018,6 50 0,0
21.01.2019 02:00:00 1,8 -0,1 - 11 6 - - SSW 1019,1 40 0,0
21.01.2019 01:00:00 1,6 0,0 - 18 10 - - WSW 1019,7 45 0,0
21.01.2019 00:00:00 1,8 0,4 - 15 8 - - WSW 1020,2 35 0,0
20.01.2019 23:00:00 1,5 0,0 - 16 9 - - WSW 1020,2 35 0,0
20.01.2019 22:00:00 0,9 -0,8 - 15 8 - - WSW 1020,1 35 0,0
20.01.2019 21:00:00 0,6 -1,1 - 9 5 - - WSW 1019,8 30 0,0
20.01.2019 20:00:00 1,0 -0,5 - 16 9 - - W 1019,3 35 0,0
20.01.2019 19:00:00 0,8 -0,8 - 15 8 - - W 1018,7 30 0,0
20.01.2019 18:00:00 1,4 -0,1 - 18 10 - - WSW 1018,2 30 0,0
20.01.2019 17:00:00 2,1 1,0 - 21 11 - - W 1017,9 21 0,0
20.01.2019 16:00:00 1,7 0,7 - 21 11 - - W 1017,0 28 0,0
20.01.2019 15:00:00 2,5 1,4 - 22 12 46 25 W 1016,5 35 0,0
20.01.2019 14:00:00 2,5 1,5 - 41 22 61 33 W 1016,4 6 0,4
20.01.2019 13:00:00 4,0 2,2 - 21 11 - - WNW 1015,2 40 0,0
20.01.2019 12:00:00 3,8 2,5 - 28 15 - - W 1014,6 27 0,0
20.01.2019 11:00:00 3,2 2,3 - 21 11 - - W 1013,9 20 0,2
20.01.2019 10:00:00 3,3 2,5 - 26 14 - - W 1013,2 16 0,8
20.01.2019 09:00:00 3,1 1,6 3,7 18 10 - - SW 1012,4 9 0,2
20.01.2019 08:00:00 2,5 0,5 - 13 7 - - S 1011,8 45 0,0
20.01.2019 07:00:00 1,1 -0,7 - 9 5 - - S 1011,6 50 0,0
20.01.2019 06:00:00 0,9 -0,2 - 8 4 - - SSW 1011,4 50 0,0
20.01.2019 05:00:00 -1,5 -2,3 - 9 5 - - SW 1011,5 50 0,0
20.01.2019 04:00:00 -1,2 -2,2 - 9 5 - - SW 1011,3 29 0,0
20.01.2019 03:00:00 0,5 0,0 - 9 5 - - S 1011,3 40 0,0
20.01.2019 02:00:00 -1,6 -2,0 - 8 4 - - SW 1011,2 9 0,0
20.01.2019 01:00:00 -0,9 -1,3 - 8 4 - - SW 1011,1 8 0,0
20.01.2019 00:00:00 -2,5 -3,1 - 8 4 - - WSW 1011,0 6 0,0
19.01.2019 23:00:00 -1,5 -2,2 - 5 3 - - WSW 1010,8 8 0,0
19.01.2019 22:00:00 -0,8 -1,8 - 4 2 - - WSW 1010,6 7 0,0
19.01.2019 21:00:00 1,3 0,3 - 4 2 - - SSW 1010,3 11 0,0
19.01.2019 20:00:00 2,1 0,4 - 5 3 - - SSW 1009,9 13 0,0
19.01.2019 19:00:00 3,3 1,3 - 9 5 - - SSE 1009,8 16 0,0
19.01.2019 18:00:00 2,9 1,2 - 4 2 - - SSW 1009,7 11 0,0
19.01.2019 17:00:00 4,7 2,2 - 5 3 - - SSE 1009,3 23 0,0
19.01.2019 16:00:00 5,2 2,4 - 9 5 - - SSE 1009,0 25 0,0
19.01.2019 15:00:00 5,4 2,6 - 9 5 - - SE 1008,7 30 0,0
19.01.2019 14:00:00 5,4 2,8 - 11 6 - - SE 1008,9 22 0,0
19.01.2019 13:00:00 5,6 3,0 - 9 5 - - SE 1009,0 18 0,0
19.01.2019 12:00:00 5,3 2,6 - 11 6 - - ESE 1008,9 19 0,0
19.01.2019 11:00:00 5,1 2,7 - 11 6 - - SE 1009,0 20 0,0
19.01.2019 10:00:00 5,1 2,6 - 9 5 - - SSE 1008,8 18 0,0
19.01.2019 09:00:00 5,3 2,1 3,9 13 7 - - SE 1008,4 40 0,0
19.01.2019 08:00:00 5,3 2,3 - 15 8 - - SE 1007,8 35 0,0
19.01.2019 07:00:00 5,1 1,9 - 15 8 - - ESE 1007,6 45 0,0
19.01.2019 06:00:00 4,7 2,1 - 15 8 - - SE 1007,6 30 0,0
19.01.2019 05:00:00 4,1 1,5 - 13 7 - - SSE 1007,4 35 0,0
19.01.2019 04:00:00 4,4 1,4 - 18 10 - - SSE 1007,7 45 0,0
19.01.2019 03:00:00 4,5 1,6 - 21 11 - - SSE 1007,9 35 0,0
19.01.2019 02:00:00 4,4 1,4 - 22 12 - - SSE 1008,0 35 0,0
19.01.2019 01:00:00 4,6 1,6 - 22 12 - - SSE 1008,2 29 0,0
19.01.2019 00:00:00 4,8 1,4 - 26 14 - - SSE 1008,3 23 0,0
18.01.2019 23:00:00 5,0 1,1 - 26 14 46 25 SSE 1008,4 27 0,0
18.01.2019 22:00:00 4,6 0,8 - 28 15 - - SSE 1008,7 28 0,0
18.01.2019 21:00:00 4,5 -0,1 - 22 12 - - SSE 1008,7 23 0,0
18.01.2019 20:00:00 4,6 -0,6 - 26 14 - - SSE 1008,9 30 0,0
18.01.2019 19:00:00 4,5 -0,7 - 24 13 - - SSE 1009,1 27 0,0
18.01.2019 18:00:00 4,5 -1,5 - 29 16 - - SSE 1009,3 29 0,0
18.01.2019 17:00:00 4,2 -1,4 - 26 14 - - SSE 1009,6 28 0,0
18.01.2019 16:00:00 4,3 -1,8 - 29 16 46 25 SSE 1009,9 25 0,0
18.01.2019 15:00:00 4,3 -1,5 - 26 14 46 25 SSE 1010,3 28 0,0
18.01.2019 14:00:00 4,3 -0,5 - 26 14 - - SSE 1010,8 20 0,0
18.01.2019 13:00:00 4,1 -1,4 - 24 13 - - SSE 1011,2 24 0,0
18.01.2019 12:00:00 4,1 -2,0 - 29 16 - - SSE 1011,7 18 0,0
18.01.2019 11:00:00 3,9 -2,1 - 18 10 - - SSE 1012,1 20 0,0
18.01.2019 10:00:00 3,5 -2,2 - 15 8 - - SSE 1012,3 26 0,0
18.01.2019 09:00:00 3,2 -2,3 4,2 8 4 - - SSE 1012,3 35 0,0
18.01.2019 08:00:00 3,7 -1,9 - 15 8 - - SSE 1012,2 35 0,2
18.01.2019 07:00:00 3,5 -0,6 - 15 8 - - SSE 1012,5 28 0,0
18.01.2019 06:00:00 3,2 -0,3 - 11 6 - - S 1012,8 30 0,0
18.01.2019 05:00:00 1,7 -0,3 - 8 4 - - S 1013,1 35 0,0
18.01.2019 04:00:00 1,0 -0,9 - 5 3 - - S 1013,4 30 0,0
18.01.2019 03:00:00 0,9 -1,0 - 5 3 - - SSW 1013,8 40 0,0
18.01.2019 02:00:00 0,3 -2,5 - 5 3 - - SW 1014,1 40 0,0
18.01.2019 01:00:00 -0,8 -2,1 - 8 4 - - SW 1014,5 35 0,0
18.01.2019 00:00:00 -0,9 -2,1 - 8 4 - - WSW 1014,9 45 0,0
17.01.2019 23:00:00 0,1 -0,9 - 5 3 - - SW 1015,0 50 0,0
17.01.2019 22:00:00 0,5 -0,1 - 8 4 - - SSW 1015,0 40 0,0
17.01.2019 21:00:00 -0,1 -0,5 - 9 5 - - WSW 1015,4 35 0,0
17.01.2019 20:00:00 -1,0 -1,5 - 11 6 - - W 1015,4 27 0,0
17.01.2019 19:00:00 -0,4 -0,9 - 11 6 - - SW 1015,2 27 0,0
17.01.2019 18:00:00 0,0 -0,9 - 15 8 - - W 1015,3 11 0,0
17.01.2019 17:00:00 -0,2 -1,6 - 13 7 - - W 1014,6 45 0,0
17.01.2019 16:00:00 0,4 -1,2 - 11 6 - - W 1014,4 26 0,0
17.01.2019 15:00:00 2,9 0,0 - 15 8 - - NNW 1013,9 26 0,0
17.01.2019 14:00:00 2,9 -0,5 - 13 7 - - WNW 1013,4 30 0,0
17.01.2019 13:00:00 3,8 0,1 - 22 12 - - NW 1013,0 27 0,0
17.01.2019 12:00:00 4,4 -0,4 - 22 12 - - NNW 1012,6 21 0,0
17.01.2019 11:00:00 2,8 -0,1 - 22 12 - - NW 1012,0 15 0,0
17.01.2019 10:00:00 3,5 -0,9 - 31 17 - - NNW 1011,2 21 0,0
17.01.2019 09:00:00 2,8 0,3 5,0 28 15 54 29 N 1010,3 21 0,0
17.01.2019 08:00:00 1,1 -0,1 - 28 15 63 34 NW 1009,4 21 0,0
17.01.2019 07:00:00 2,4 -0,7 - 39 21 52 28 NNW 1007,9 21 0,0
17.01.2019 06:00:00 1,4 -0,8 - 41 22 70 38 N 1006,9 28 0,2
17.01.2019 05:00:00 1,5 0,0 - 59 32 76 41 N 1006,3 14 0,0
17.01.2019 04:00:00 2,8 -2,5 - 39 21 81 44 NNW 1004,2 26 0,0
17.01.2019 03:00:00 2,7 -2,1 - 39 21 63 34 NNW 1002,9 35 0,0
17.01.2019 02:00:00 1,7 -1,9 - 41 22 76 41 NW 1001,6 24 0,2

tt = temperature
td = dewpoint
tt -20cm = temperature -20cm
ff = wind speed
fx = gusts
dd = wind direction
ppp = reduced air pressure
vv = visibility
rr = precipitation

Next stations